Location: Sungai Apap
(2.6167°N, 113.3833°E)
Time: 14:45:43
(UTC+00:00)

ARIANE 5 DEB (SYLDA) - Pass Details

Date: 25 May 2024
Orbit: 649 x 35540 km, 5.5° (Epoch: 14 June)

Event Time Altitude Azimuth Distance (km) Brightness Sun altitude
Rises 10:10:25 0° 273° (W) 13,265 11.0 4.0°
Reaches altitude 10° 10:19:22 10° 272° (W) 14,464 11.1 1.9°
Drops below altitude 10° 16:31:25 10° 265° (W) 37,173 11.4 -66.2°
Enters shadow 19:18:27 - 262° (W) 14,719 9.1 -41.1°
Exits shadow 19:55:13 65° 227° (SW) 1,935 4.6 -33.0°
Maximum altitude 19:56:27 72° 182° (S) 1,633 4.4 -32.8°
Sets 20:03:08 0° 91° (E) 3,189 7.1 -31.3°
